AMC514 LMML-LOWW

Flight info

Callsign AMC514
Flight time 1h 54m
Altitude 38000
Route GZO P623 OLLEK DCT ARFOL DCT ROMSU DCT KUTID DCT XOLTA/N0439F390 DCT ZAG/N0436F380 DCT OBUTI OBUTI2W
Aircraft A20N/M-SDE2E3FGHIRWXY/LB1

Departure

Time 2026-04-26 10:32
Airport Malta International Airport (LMML)

Arrival

Time 2026-04-26 12:26
Airport Vienna International Airport (LOWW)
Time Latitude Longitude Altitude Speed Heading
2026-04-26 10:07 35.84708 14.49399 259 ft 0 kts 224°
2026-04-26 10:22 35.84723 14.49417 259 ft 3 kts 224°
2026-04-26 10:22 35.84738 14.49437 259 ft 4 kts 237°
2026-04-26 10:23 35.84748 14.49466 259 ft 4 kts 266°
2026-04-26 10:23 35.84748 14.49485 259 ft 0 kts 281°
2026-04-26 10:26 35.84753 14.49476 259 ft 5 kts 306°
2026-04-26 10:26 35.84784 14.49447 259 ft 6 kts 323°
2026-04-26 10:26 35.84843 14.49379 259 ft 14 kts 315°
2026-04-26 10:27 35.84904 14.49306 259 ft 9 kts 315°
2026-04-26 10:27 35.84920 14.49283 259 ft 6 kts 307°
2026-04-26 10:27 35.84932 14.49211 258 ft 11 kts 254°
2026-04-26 10:27 35.84910 14.49111 259 ft 14 kts 285°
2026-04-26 10:28 35.84963 14.49000 259 ft 16 kts 298°
2026-04-26 10:28 35.85000 14.48863 259 ft 18 kts 286°
2026-04-26 10:28 35.85026 14.48746 262 ft 12 kts 285°
2026-04-26 10:28 35.85065 14.48624 267 ft 21 kts 298°
2026-04-26 10:29 35.85156 14.48485 272 ft 22 kts 315°
2026-04-26 10:29 35.85279 14.48330 272 ft 27 kts 314°
2026-04-26 10:29 35.85417 14.48163 272 ft 24 kts 318°
2026-04-26 10:29 35.85554 14.48061 273 ft 20 kts 337°
2026-04-26 10:30 35.85635 14.48051 272 ft 10 kts 39°
2026-04-26 10:30 35.85657 14.48138 274 ft 13 kts 85°
2026-04-26 10:30 35.85711 14.48189 272 ft 12 kts 358°
2026-04-26 10:30 35.85799 14.48175 272 ft 16 kts 350°
2026-04-26 10:31 35.85915 14.48153 272 ft 13 kts 352°
2026-04-26 10:31 35.85947 14.48086 275 ft 12 kts 245°
2026-04-26 10:31 35.85928 14.48049 272 ft 0 kts 235°
2026-04-26 10:32 35.85903 14.48005 272 ft 33 kts 234°
2026-04-26 10:32 35.85613 14.47509 272 ft 106 kts 234°
2026-04-26 10:32 35.85081 14.46596 355 ft 152 kts 236°
2026-04-26 10:32 35.84473 14.45538 981 ft 152 kts 235°
2026-04-26 10:33 35.83862 14.44468 1731 ft 153 kts 237°
2026-04-26 10:33 35.83244 14.43379 2323 ft 163 kts 236°
2026-04-26 10:33 35.82547 14.42154 2751 ft 186 kts 235°
2026-04-26 10:33 35.81762 14.40774 3053 ft 208 kts 235°
2026-04-26 10:34 35.80881 14.39232 3373 ft 233 kts 234°
2026-04-26 10:34 35.80044 14.37412 3794 ft 256 kts 249°
2026-04-26 10:34 35.79660 14.35265 4543 ft 265 kts 266°
2026-04-26 10:34 35.79816 14.32992 5425 ft 270 kts 283°
2026-04-26 10:35 35.80530 14.30849 6345 ft 273 kts 302°
2026-04-26 10:35 35.81758 14.29062 7242 ft 275 kts 318°
2026-04-26 10:35 35.83204 14.27525 8171 ft 275 kts 319°
2026-04-26 10:35 35.84658 14.25979 9059 ft 277 kts 319°
2026-04-26 10:36 35.86124 14.24415 9926 ft 280 kts 319°
2026-04-26 10:36 35.87653 14.22868 10509 ft 294 kts 324°
2026-04-26 10:36 35.89478 14.21595 10747 ft 318 kts 336°
2026-04-26 10:36 35.91637 14.20775 11231 ft 331 kts 348°
2026-04-26 10:37 35.93958 14.20517 11919 ft 338 kts 359°
2026-04-26 10:37 35.96326 14.20520 12643 ft 343 kts 359°
2026-04-26 10:37 35.98729 14.20523 13363 ft 347 kts 358°
2026-04-26 10:37 36.01162 14.20573 14060 ft 353 kts
2026-04-26 10:38 36.03589 14.21139 14677 ft 359 kts 15°
2026-04-26 10:38 36.05904 14.22347 15296 ft 365 kts 28°
2026-04-26 10:38 36.08052 14.24049 15922 ft 369 kts 32°
2026-04-26 10:38 36.10175 14.25792 16541 ft 373 kts 32°
2026-04-26 10:39 36.12344 14.27575 17159 ft 377 kts 32°
2026-04-26 10:39 36.14540 14.29380 17756 ft 381 kts 33°
2026-04-26 10:39 36.16761 14.31205 18344 ft 386 kts 32°
2026-04-26 10:39 36.19008 14.33052 18872 ft 389 kts 32°
2026-04-26 10:40 36.21272 14.34914 19442 ft 392 kts 32°
2026-04-26 10:40 36.23550 14.36788 20000 ft 394 kts 32°
2026-04-26 10:40 36.25843 14.38672 20556 ft 397 kts 31°
2026-04-26 10:40 36.28154 14.40572 21107 ft 400 kts 31°
2026-04-26 10:41 36.30447 14.42462 21643 ft 403 kts 31°
2026-04-26 10:41 36.32791 14.44400 22180 ft 406 kts 31°
2026-04-26 10:41 36.35149 14.46351 22722 ft 409 kts 31°
2026-04-26 10:41 36.37527 14.48317 23245 ft 412 kts 31°
2026-04-26 10:42 36.39921 14.50297 23743 ft 415 kts 30°
2026-04-26 10:42 36.42332 14.52297 24168 ft 418 kts 30°
2026-04-26 10:42 36.44756 14.54309 24578 ft 420 kts 30°
2026-04-26 10:42 36.47198 14.56328 24985 ft 422 kts 29°
2026-04-26 10:43 36.49743 14.58027 25371 ft 421 kts 20°
2026-04-26 10:43 36.52503 14.59197 25757 ft 418 kts 10°
2026-04-26 10:43 36.55358 14.59884 26131 ft 419 kts
2026-04-26 10:43 36.58232 14.60532 26515 ft 421 kts
2026-04-26 10:44 36.61129 14.61199 26842 ft 425 kts
2026-04-26 10:44 36.64042 14.61875 27196 ft 427 kts
2026-04-26 10:44 36.66971 14.62555 27557 ft 429 kts
2026-04-26 10:44 36.69913 14.63238 27914 ft 431 kts
2026-04-26 10:45 36.72831 14.63916 28259 ft 433 kts
2026-04-26 10:45 36.75803 14.64601 28602 ft 436 kts
2026-04-26 10:45 36.78791 14.65290 28932 ft 438 kts
2026-04-26 10:45 36.81792 14.65984 29251 ft 440 kts
2026-04-26 10:46 36.84814 14.66681 29532 ft 443 kts
2026-04-26 10:46 36.87850 14.67373 29854 ft 444 kts
2026-04-26 10:46 36.90899 14.68065 30164 ft 446 kts
2026-04-26 10:46 36.93960 14.68759 30419 ft 448 kts
2026-04-26 10:47 36.97032 14.69457 30655 ft 450 kts
2026-04-26 10:47 37.00077 14.70150 30878 ft 452 kts
2026-04-26 10:47 37.03178 14.70856 31116 ft 453 kts
2026-04-26 10:47 37.06290 14.71565 31322 ft 456 kts
2026-04-26 10:48 37.09421 14.72276 31521 ft 458 kts
2026-04-26 10:48 37.12560 14.72988 31712 ft 459 kts
2026-04-26 10:48 37.15707 14.73704 31942 ft 460 kts
2026-04-26 10:48 37.18848 14.74421 32222 ft 459 kts
2026-04-26 10:49 37.21988 14.75143 32497 ft 458 kts
2026-04-26 10:49 37.25083 14.75826 32755 ft 457 kts
2026-04-26 10:49 37.28227 14.76375 33032 ft 456 kts
2026-04-26 10:49 37.31378 14.76805 33294 ft 455 kts
2026-04-26 10:50 37.34526 14.77171 33559 ft 454 kts
2026-04-26 10:50 37.36612 14.77403 33727 ft 454 kts
2026-04-26 10:50 37.40820 14.77890 34077 ft 454 kts
2026-04-26 10:50 37.43960 14.78290 34317 ft 453 kts
2026-04-26 10:51 37.47094 14.78719 34550 ft 453 kts
2026-04-26 10:51 37.53310 14.79608 35012 ft 452 kts
2026-04-26 10:51 37.56434 14.80056 35237 ft 451 kts
2026-04-26 10:52 37.59554 14.80494 35446 ft 451 kts
2026-04-26 10:52 37.62669 14.80927 35661 ft 450 kts
2026-04-26 10:52 37.65778 14.81357 35865 ft 450 kts
2026-04-26 10:52 37.68889 14.81785 36070 ft 449 kts
2026-04-26 10:53 37.71996 14.82212 36572 ft 449 kts
2026-04-26 10:53 37.75073 14.82636 36998 ft 440 kts
2026-04-26 10:53 37.78050 14.83050 37412 ft 433 kts
2026-04-26 10:54 37.84008 14.83878 37902 ft 429 kts
2026-04-26 10:54 37.86971 14.84292 38091 ft 428 kts
2026-04-26 10:54 37.92880 14.85112 38159 ft 427 kts
2026-04-26 10:55 37.98777 14.85941 38160 ft 426 kts
2026-04-26 10:55 38.04655 14.86770 38169 ft 430 kts
2026-04-26 10:56 38.10623 14.87608 38177 ft 432 kts
2026-04-26 10:56 38.16593 14.88439 38179 ft 432 kts
2026-04-26 10:57 38.22580 14.89272 38181 ft 433 kts
2026-04-26 10:57 38.28532 14.90107 38189 ft 434 kts
2026-04-26 10:58 38.34533 14.90967 38198 ft 434 kts
2026-04-26 10:58 38.40535 14.91823 38204 ft 434 kts
2026-04-26 10:59 38.46537 14.92674 38210 ft 434 kts
2026-04-26 10:59 38.52553 14.93521 38032 ft 435 kts
2026-04-26 11:00 38.55522 14.93936 38197 ft 436 kts
2026-04-26 11:00 38.58550 14.94362 38189 ft 440 kts
2026-04-26 11:00 38.64687 14.95237 38189 ft 447 kts
2026-04-26 11:01 38.70887 14.96129 38189 ft 449 kts
2026-04-26 11:01 38.77103 14.97019 38189 ft 449 kts
2026-04-26 11:02 38.83279 14.97903 38191 ft 450 kts
2026-04-26 11:02 38.89501 14.98792 38204 ft 450 kts
2026-04-26 11:03 38.95734 14.99683 38205 ft 451 kts
2026-04-26 11:03 39.01961 15.00587 38206 ft 451 kts
2026-04-26 11:04 39.08159 15.01484 38212 ft 451 kts
2026-04-26 11:04 39.14393 15.02383 38209 ft 451 kts
2026-04-26 11:05 39.20629 15.03282 38208 ft 451 kts
2026-04-26 11:05 39.26868 15.04185 38205 ft 451 kts
2026-04-26 11:06 39.33104 15.05090 38207 ft 451 kts
2026-04-26 11:06 39.39300 15.05992 38206 ft 451 kts
2026-04-26 11:07 39.45537 15.06903 38205 ft 451 kts
2026-04-26 11:07 39.51782 15.07809 38214 ft 452 kts
2026-04-26 11:08 39.58027 15.08729 38214 ft 452 kts
2026-04-26 11:08 39.64232 15.09638 38218 ft 452 kts
2026-04-26 11:09 39.70474 15.10549 38207 ft 451 kts
2026-04-26 11:09 39.76713 15.11466 38206 ft 451 kts
2026-04-26 11:10 39.82950 15.12393 38205 ft 451 kts
2026-04-26 11:10 39.89143 15.13308 38204 ft 451 kts
2026-04-26 11:11 39.95374 15.14227 38205 ft 450 kts
2026-04-26 11:11 40.01598 15.15140 38204 ft 450 kts
2026-04-26 11:12 40.07811 15.16059 38200 ft 449 kts
2026-04-26 11:12 40.13980 15.16971 38195 ft 449 kts
2026-04-26 11:13 40.20180 15.17894 38193 ft 448 kts
2026-04-26 11:13 40.26377 15.18829 38187 ft 448 kts
2026-04-26 11:14 40.32570 15.19755 38188 ft 448 kts
2026-04-26 11:14 40.38724 15.20670 38187 ft 448 kts
2026-04-26 11:15 40.44906 15.21674 38182 ft 448 kts
2026-04-26 11:15 40.51055 15.23062 38177 ft 449 kts
2026-04-26 11:16 40.57188 15.24589 38186 ft 449 kts
2026-04-26 11:16 40.63289 15.26036 38175 ft 448 kts
2026-04-26 11:17 40.69434 15.27427 38168 ft 448 kts
2026-04-26 11:17 40.75578 15.28809 38167 ft 448 kts
2026-04-26 11:18 40.81720 15.30209 38169 ft 448 kts
2026-04-26 11:18 40.87817 15.31613 38156 ft 448 kts
2026-04-26 11:19 40.93950 15.33033 38148 ft 447 kts
2026-04-26 11:19 41.00082 15.34446 38145 ft 447 kts
2026-04-26 11:20 41.05173 15.35615 38146 ft 447 kts
2026-04-26 11:20 41.12334 15.37265 38132 ft 447 kts
2026-04-26 11:21 41.18410 15.38684 38133 ft 447 kts
2026-04-26 11:21 41.24540 15.40111 38129 ft 447 kts
2026-04-26 11:22 41.30664 15.41534 38131 ft 447 kts
2026-04-26 11:22 41.36791 15.42961 38137 ft 447 kts
2026-04-26 11:23 41.42867 15.44384 38133 ft 446 kts
2026-04-26 11:23 41.48988 15.45819 38131 ft 446 kts
2026-04-26 11:24 41.55102 15.47260 38129 ft 446 kts
2026-04-26 11:24 41.61215 15.48700 38136 ft 446 kts
2026-04-26 11:25 41.67287 15.50121 38134 ft 446 kts
2026-04-26 11:25 41.73396 15.51555 38134 ft 446 kts
2026-04-26 11:26 41.79505 15.53007 38156 ft 446 kts
2026-04-26 11:26 41.85611 15.54459 38164 ft 446 kts
2026-04-26 11:27 41.91715 15.55906 38167 ft 445 kts
2026-04-26 11:27 41.97779 15.57338 38179 ft 445 kts
2026-04-26 11:28 42.03876 15.58788 38171 ft 445 kts
2026-04-26 11:28 42.09974 15.60245 38163 ft 445 kts
2026-04-26 11:29 42.16068 15.61709 38164 ft 445 kts
2026-04-26 11:29 42.22110 15.63157 38151 ft 444 kts
2026-04-26 11:30 42.27164 15.64368 38154 ft 443 kts
2026-04-26 11:30 42.34260 15.66073 38149 ft 443 kts
2026-04-26 11:31 42.40326 15.67538 38160 ft 442 kts
2026-04-26 11:31 42.46343 15.69000 38155 ft 442 kts
2026-04-26 11:32 42.52398 15.70460 38151 ft 442 kts
2026-04-26 11:32 42.58448 15.71915 38157 ft 442 kts
2026-04-26 11:33 42.64497 15.73388 38152 ft 441 kts
2026-04-26 11:33 42.70497 15.74851 38149 ft 441 kts
2026-04-26 11:34 42.76557 15.76027 38154 ft 440 kts
2026-04-26 11:34 42.82633 15.76934 38148 ft 439 kts
2026-04-26 11:35 42.88705 15.77853 38145 ft 439 kts
2026-04-26 11:35 42.93751 15.78678 38152 ft 440 kts
2026-04-26 11:36 43.00808 15.79879 38147 ft 440 kts
2026-04-26 11:36 43.06880 15.80909 38143 ft 440 kts
2026-04-26 11:37 43.12955 15.81934 38145 ft 440 kts
2026-04-26 11:37 43.18985 15.82953 38144 ft 439 kts
2026-04-26 11:38 43.25053 15.83972 38139 ft 439 kts
2026-04-26 11:38 43.31112 15.84996 38137 ft 439 kts
2026-04-26 11:39 43.37162 15.86014 38135 ft 437 kts
2026-04-26 11:39 43.43200 15.87035 38132 ft 437 kts
2026-04-26 11:40 43.49196 15.88055 38132 ft 437 kts
2026-04-26 11:40 43.55227 15.89088 38128 ft 437 kts
2026-04-26 11:42 43.79290 15.93196 38110 ft 436 kts
2026-04-26 11:43 43.85308 15.94226 38108 ft 436 kts
2026-04-26 11:43 43.91329 15.95270 38118 ft 436 kts
2026-04-26 11:44 43.97343 15.96321 38107 ft 435 kts
2026-04-26 11:44 44.03312 15.97353 38101 ft 435 kts
2026-04-26 11:45 44.09316 15.98379 38102 ft 435 kts
2026-04-26 11:45 44.15320 15.99423 38098 ft 435 kts
2026-04-26 11:46 44.21321 16.00471 38099 ft 435 kts
2026-04-26 11:46 44.27286 16.01513 38109 ft 435 kts
2026-04-26 11:47 44.33303 16.02564 38108 ft 436 kts
2026-04-26 11:47 44.39319 16.03617 38106 ft 436 kts
2026-04-26 11:48 44.45338 16.04682 38122 ft 436 kts
2026-04-26 11:48 44.51315 16.05729 38119 ft 436 kts
2026-04-26 11:49 44.57327 16.06779 38121 ft 435 kts
2026-04-26 11:49 44.63337 16.07840 38134 ft 435 kts
2026-04-26 11:50 44.69331 16.08915 38133 ft 435 kts
2026-04-26 11:50 44.75303 16.09971 38126 ft 434 kts
2026-04-26 11:51 44.81298 16.11032 38128 ft 434 kts
2026-04-26 11:51 44.87294 16.12101 38139 ft 434 kts
2026-04-26 11:52 44.92274 16.12990 38143 ft 434 kts
2026-04-26 11:52 44.99245 16.14234 38136 ft 435 kts
2026-04-26 11:53 45.05245 16.15307 38152 ft 435 kts
2026-04-26 11:54 45.14238 16.16923 38152 ft 434 kts
2026-04-26 11:54 45.20224 16.18009 38150 ft 433 kts
2026-04-26 11:55 45.26166 16.19082 38154 ft 433 kts
2026-04-26 11:55 45.32150 16.20158 38151 ft 433 kts
2026-04-26 11:56 45.38130 16.21245 38156 ft 434 kts
2026-04-26 11:56 45.44118 16.22329 38175 ft 434 kts
2026-04-26 11:57 45.50062 16.23409 38169 ft 434 kts
2026-04-26 11:57 45.56050 16.24504 38166 ft 434 kts
2026-04-26 11:58 45.62037 16.25596 38168 ft 434 kts
2026-04-26 11:58 45.68027 16.26697 38168 ft 434 kts
2026-04-26 11:59 45.73976 16.27792 38172 ft 434 kts
2026-04-26 11:59 45.79969 16.28893 38186 ft 434 kts
2026-04-26 12:00 45.85964 16.30008 38180 ft 435 kts
2026-04-26 12:00 45.91968 16.30516 38179 ft 431 kts 354°
2026-04-26 12:01 45.97958 16.30094 38182 ft 431 kts 355°
2026-04-26 12:01 46.03912 16.29689 38188 ft 431 kts 355°
2026-04-26 12:02 46.09909 16.29291 38183 ft 431 kts 355°
2026-04-26 12:02 46.15908 16.28891 38183 ft 431 kts 355°
2026-04-26 12:03 46.21905 16.28488 38200 ft 432 kts 354°
2026-04-26 12:03 46.27862 16.28083 38193 ft 431 kts 354°
2026-04-26 12:04 46.33855 16.27672 38195 ft 431 kts 355°
2026-04-26 12:04 46.39816 16.26948 38195 ft 429 kts 348°
2026-04-26 12:05 46.45703 16.25559 38155 ft 429 kts 348°
2026-04-26 12:05 46.48643 16.24862 37877 ft 428 kts 348°
2026-04-26 12:05 46.51539 16.24173 37598 ft 428 kts 348°
2026-04-26 12:05 46.54475 16.23474 37321 ft 428 kts 348°
2026-04-26 12:06 46.57412 16.22776 36877 ft 428 kts 348°
2026-04-26 12:06 46.60358 16.22076 36091 ft 429 kts 348°
2026-04-26 12:06 46.63309 16.21374 35282 ft 431 kts 348°
2026-04-26 12:06 46.66277 16.20668 34488 ft 433 kts 348°
2026-04-26 12:07 46.69263 16.19953 33547 ft 437 kts 348°
2026-04-26 12:07 46.72274 16.19230 32547 ft 440 kts 348°
2026-04-26 12:07 46.75265 16.18516 31574 ft 443 kts 348°
2026-04-26 12:07 46.78317 16.17789 30696 ft 444 kts 348°
2026-04-26 12:08 46.81335 16.17072 30101 ft 437 kts 348°
2026-04-26 12:08 46.84318 16.16360 29405 ft 431 kts 349°
2026-04-26 12:08 46.87257 16.15653 28779 ft 425 kts 349°
2026-04-26 12:08 46.90160 16.14955 28147 ft 420 kts 349°
2026-04-26 12:09 46.93026 16.14266 27532 ft 415 kts 349°
2026-04-26 12:09 46.95861 16.13584 26924 ft 410 kts 349°
2026-04-26 12:09 46.98667 16.12907 26271 ft 407 kts 349°
2026-04-26 12:09 47.01416 16.12243 25647 ft 404 kts 349°
2026-04-26 12:10 47.04182 16.11576 25004 ft 401 kts 349°
2026-04-26 12:10 47.06928 16.10913 24385 ft 398 kts 349°
2026-04-26 12:10 47.09649 16.10255 23795 ft 395 kts 349°
2026-04-26 12:10 47.12355 16.09598 23131 ft 392 kts 349°
2026-04-26 12:11 47.15024 16.08950 22598 ft 386 kts 349°
2026-04-26 12:11 47.17652 16.08312 22067 ft 381 kts 349°
2026-04-26 12:11 47.20252 16.07681 21571 ft 376 kts 349°
2026-04-26 12:11 47.22779 16.07068 21085 ft 372 kts 349°
2026-04-26 12:12 47.25319 16.06450 20570 ft 368 kts 349°
2026-04-26 12:12 47.27834 16.05834 20083 ft 364 kts 349°
2026-04-26 12:12 47.30325 16.05223 19575 ft 362 kts 349°
2026-04-26 12:12 47.31966 16.04820 19237 ft 360 kts 349°
2026-04-26 12:13 47.35268 16.04088 18529 ft 359 kts 354°
2026-04-26 12:13 47.37764 16.04254 17943 ft 360 kts
2026-04-26 12:13 47.40189 16.05217 17343 ft 362 kts 15°
2026-04-26 12:13 47.42570 16.06404 16758 ft 361 kts 15°
2026-04-26 12:14 47.44944 16.07582 16187 ft 360 kts 14°
2026-04-26 12:14 47.47282 16.08737 15610 ft 358 kts 14°
2026-04-26 12:14 47.49644 16.09907 15030 ft 357 kts 14°
2026-04-26 12:14 47.51999 16.11074 14481 ft 357 kts 14°
2026-04-26 12:15 47.54349 16.12240 13876 ft 356 kts 14°
2026-04-26 12:15 47.56696 16.13409 13264 ft 354 kts 14°
2026-04-26 12:15 47.59020 16.14572 12704 ft 351 kts 14°
2026-04-26 12:15 47.61323 16.15723 12137 ft 349 kts 14°
2026-04-26 12:16 47.63612 16.16865 11575 ft 345 kts 14°
2026-04-26 12:16 47.65847 16.17981 11027 ft 342 kts 14°
2026-04-26 12:16 47.68082 16.19100 10674 ft 333 kts 14°
2026-04-26 12:16 47.70225 16.20178 10550 ft 317 kts 14°
2026-04-26 12:17 47.72268 16.21210 10429 ft 304 kts 14°
2026-04-26 12:17 47.74227 16.22200 10307 ft 291 kts 14°
2026-04-26 12:17 47.76021 16.23518 10152 ft 288 kts 29°
2026-04-26 12:17 47.77479 16.25578 9713 ft 297 kts 47°
2026-04-26 12:18 47.78550 16.28256 9321 ft 300 kts 55°
2026-04-26 12:18 47.79555 16.30952 8948 ft 297 kts 54°
2026-04-26 12:18 47.80548 16.33582 8414 ft 294 kts 54°
2026-04-26 12:18 47.81553 16.36229 7630 ft 294 kts 54°
2026-04-26 12:19 47.82560 16.38874 6906 ft 294 kts 54°
2026-04-26 12:19 47.83566 16.41515 6202 ft 291 kts 54°
2026-04-26 12:19 47.84550 16.44099 5632 ft 282 kts 55°
2026-04-26 12:19 47.85499 16.46603 5099 ft 273 kts 56°
2026-04-26 12:20 47.86411 16.49015 4580 ft 262 kts 54°
2026-04-26 12:20 47.87264 16.51283 4394 ft 237 kts 54°
2026-04-26 12:20 47.88025 16.53320 4344 ft 217 kts 54°
2026-04-26 12:20 47.88752 16.55251 4292 ft 217 kts 54°
2026-04-26 12:21 47.89483 16.57184 4227 ft 210 kts 54°
2026-04-26 12:21 47.90187 16.59050 4121 ft 202 kts 54°
2026-04-26 12:21 47.90867 16.60847 4037 ft 196 kts 54°
2026-04-26 12:21 47.91549 16.62592 3934 ft 194 kts 48°
2026-04-26 12:22 47.92466 16.63962 3808 ft 183 kts 28°
2026-04-26 12:22 47.93590 16.64753 3659 ft 177 kts 11°
2026-04-26 12:22 47.94795 16.64940 3491 ft 175 kts 354°
2026-04-26 12:22 47.95969 16.64564 3278 ft 176 kts 345°
2026-04-26 12:23 47.97142 16.64072 3029 ft 173 kts 344°
2026-04-26 12:23 47.98304 16.63584 2817 ft 174 kts 343°
2026-04-26 12:23 47.99459 16.63097 2589 ft 169 kts 345°
2026-04-26 12:23 48.00552 16.62638 2359 ft 157 kts 345°
2026-04-26 12:24 48.01554 16.62215 2156 ft 143 kts 346°
2026-04-26 12:24 48.02481 16.61825 1948 ft 134 kts 345°
2026-04-26 12:24 48.03347 16.61460 1782 ft 126 kts 345°
2026-04-26 12:25 48.05003 16.60763 1463 ft 124 kts 345°
2026-04-26 12:25 48.05838 16.60411 1279 ft 124 kts 345°
2026-04-26 12:25 48.06663 16.60063 1103 ft 121 kts 347°
2026-04-26 12:25 48.07473 16.59721 930 ft 123 kts 348°
2026-04-26 12:26 48.08292 16.59376 772 ft 123 kts 345°
2026-04-26 12:26 48.09114 16.59029 625 ft 121 kts 344°
2026-04-26 12:26 48.09864 16.58719 620 ft 70 kts 344°
2026-04-26 12:26 48.10024 16.58584 624 ft 18 kts 304°
2026-04-26 12:27 48.10089 16.58420 612 ft 19 kts 300°
2026-04-26 12:27 48.10124 16.58286 610 ft 12 kts 235°
2026-04-26 12:27 48.10140 16.58186 626 ft 13 kts 324°
2026-04-26 12:27 48.10227 16.58140 618 ft 14 kts 343°
2026-04-26 12:28 48.10346 16.58089 616 ft 22 kts 345°
2026-04-26 12:28 48.10495 16.58028 617 ft 22 kts 345°
2026-04-26 12:28 48.10641 16.57968 613 ft 22 kts 345°
2026-04-26 12:28 48.10788 16.57904 618 ft 21 kts 343°
2026-04-26 12:29 48.10913 16.57848 621 ft 16 kts 343°
2026-04-26 12:29 48.11028 16.57801 621 ft 16 kts 345°
2026-04-26 12:29 48.11193 16.57609 614 ft 17 kts 296°
2026-04-26 12:30 48.11248 16.57440 618 ft 18 kts 295°
2026-04-26 12:30 48.11316 16.57345 621 ft 14 kts
2026-04-26 12:30 48.11402 16.57380 610 ft 13 kts 357°
2026-04-26 12:31 48.11522 16.57338 610 ft 9 kts 22°
2026-04-26 12:31 48.11533 16.57344 614 ft 0 kts 23°
2026-04-26 12:32 47.78100 16.27035 9429 ft 298 kts 55°